WZZ3UA LYPG-LHBP

Flight info

Callsign WZZ3UA
Flight time 0h 52m
Altitude 38000
Route NIK DCT GACMO DCT SIVLA DCT BAREB DCT ULZAK
Aircraft A321/M-SDE1E2E3FGIJ1J4RWXY/LB1

Departure

Time 2026-05-08 20:27
Airport Podgorica Airport / Podgorica Golubovci Airbase (LYPG)

Arrival

Time 2026-05-08 21:20
Airport Budapest Liszt Ferenc International Airport (LHBP)
Time Latitude Longitude Altitude Speed Heading
2026-05-08 19:49 42.36747 19.24751 106 ft 0 kts 313°
2026-05-08 20:21 42.36751 19.24750 106 ft 1 kts 345°
2026-05-08 20:21 42.36762 19.24757 106 ft 4 kts 24°
2026-05-08 20:21 42.36789 19.24811 106 ft 9 kts 59°
2026-05-08 20:22 42.36846 19.24845 106 ft 10 kts
2026-05-08 20:22 42.36919 19.24874 106 ft 12 kts 45°
2026-05-08 20:22 42.36929 19.24979 110 ft 10 kts 95°
2026-05-08 20:22 42.36904 19.25037 108 ft 13 kts 150°
2026-05-08 20:23 42.36758 19.25032 107 ft 19 kts 185°
2026-05-08 20:23 42.36628 19.25015 111 ft 19 kts 186°
2026-05-08 20:23 42.36487 19.24999 109 ft 21 kts 184°
2026-05-08 20:23 42.36335 19.24984 110 ft 22 kts 184°
2026-05-08 20:24 42.36172 19.24967 107 ft 25 kts 184°
2026-05-08 20:24 42.35998 19.24950 108 ft 25 kts 184°
2026-05-08 20:24 42.35818 19.24931 107 ft 26 kts 184°
2026-05-08 20:24 42.35630 19.24912 105 ft 28 kts 184°
2026-05-08 20:25 42.35435 19.24892 105 ft 29 kts 184°
2026-05-08 20:25 42.35233 19.24871 102 ft 29 kts 184°
2026-05-08 20:25 42.35036 19.24851 105 ft 27 kts 185°
2026-05-08 20:25 42.34879 19.24837 104 ft 11 kts 174°
2026-05-08 20:26 42.34847 19.24913 107 ft 9 kts 97°
2026-05-08 20:26 42.34843 19.24988 109 ft 7 kts 94°
2026-05-08 20:26 42.34842 19.25061 110 ft 7 kts 73°
2026-05-08 20:26 42.34893 19.25080 110 ft 9 kts
2026-05-08 20:27 42.35044 19.25097 109 ft 53 kts
2026-05-08 20:27 42.35680 19.25162 106 ft 128 kts
2026-05-08 20:27 42.36753 19.25291 281 ft 165 kts
2026-05-08 20:27 42.37850 19.25414 1167 ft 157 kts
2026-05-08 20:28 42.38987 19.25530 1643 ft 174 kts
2026-05-08 20:28 42.40250 19.25653 2054 ft 190 kts
2026-05-08 20:28 42.41627 19.25788 2467 ft 205 kts
2026-05-08 20:28 42.43077 19.25924 2964 ft 213 kts
2026-05-08 20:29 42.44585 19.26055 3640 ft 217 kts
2026-05-08 20:29 42.46058 19.25755 4532 ft 216 kts 338°
2026-05-08 20:29 42.47295 19.24608 5317 ft 219 kts 311°
2026-05-08 20:29 42.48253 19.22995 6097 ft 221 kts 309°
2026-05-08 20:30 42.49214 19.21355 6878 ft 223 kts 309°
2026-05-08 20:30 42.49858 19.20257 7357 ft 226 kts 309°
2026-05-08 20:30 42.50841 19.18584 8079 ft 229 kts 309°
2026-05-08 20:30 42.51840 19.16881 8802 ft 232 kts 309°
2026-05-08 20:31 42.52854 19.15149 9531 ft 236 kts 308°
2026-05-08 20:31 42.53885 19.13391 10185 ft 241 kts 309°
2026-05-08 20:31 42.55108 19.11811 10782 ft 249 kts 325°
2026-05-08 20:31 42.56631 19.10484 11037 ft 272 kts 328°
2026-05-08 20:32 42.58302 19.09066 11330 ft 293 kts 328°
2026-05-08 20:32 42.60053 19.07577 11934 ft 300 kts 328°
2026-05-08 20:32 42.61832 19.06055 12655 ft 305 kts 328°
2026-05-08 20:32 42.63632 19.04511 13420 ft 308 kts 328°
2026-05-08 20:33 42.65450 19.02949 14146 ft 311 kts 327°
2026-05-08 20:33 42.67285 19.01369 14823 ft 313 kts 327°
2026-05-08 20:33 42.69135 18.99771 15497 ft 316 kts 327°
2026-05-08 20:33 42.71000 18.98159 16168 ft 320 kts 327°
2026-05-08 20:34 42.72886 18.96528 16831 ft 323 kts 327°
2026-05-08 20:34 42.74788 18.94883 17481 ft 326 kts 326°
2026-05-08 20:34 42.78643 18.91517 18607 ft 337 kts 324°
2026-05-08 20:35 42.80617 18.89633 18713 ft 355 kts 323°
2026-05-08 20:35 42.82653 18.87592 18854 ft 372 kts 322°
2026-05-08 20:35 42.84752 18.85452 19209 ft 380 kts 322°
2026-05-08 20:35 42.86881 18.83280 19715 ft 384 kts 322°
2026-05-08 20:36 42.89038 18.81094 20280 ft 387 kts 322°
2026-05-08 20:36 42.91212 18.78907 20871 ft 390 kts 322°
2026-05-08 20:36 42.93407 18.76712 21446 ft 393 kts 322°
2026-05-08 20:36 42.95623 18.74506 22032 ft 395 kts 322°
2026-05-08 20:37 42.97852 18.72290 22599 ft 398 kts 322°
2026-05-08 20:37 43.00094 18.70053 23164 ft 401 kts 322°
2026-05-08 20:37 43.02353 18.67796 23690 ft 403 kts 322°
2026-05-08 20:37 43.04627 18.65524 24133 ft 406 kts 322°
2026-05-08 20:38 43.06913 18.63233 24564 ft 408 kts 321°
2026-05-08 20:38 43.09206 18.60928 24987 ft 411 kts 321°
2026-05-08 20:38 43.11555 18.58660 25382 ft 415 kts 327°
2026-05-08 20:38 43.14150 18.56878 25785 ft 421 kts 336°
2026-05-08 20:39 43.16975 18.55748 26190 ft 426 kts 347°
2026-05-08 20:39 43.19900 18.55315 26582 ft 431 kts 354°
2026-05-08 20:39 43.22901 18.55075 26977 ft 434 kts 354°
2026-05-08 20:39 43.25919 18.54820 27375 ft 436 kts 354°
2026-05-08 20:40 43.28956 18.54552 27769 ft 439 kts 354°
2026-05-08 20:40 43.32015 18.54279 28161 ft 441 kts 354°
2026-05-08 20:40 43.35082 18.54004 28549 ft 444 kts 354°
2026-05-08 20:40 43.38168 18.53728 28930 ft 446 kts 354°
2026-05-08 20:41 43.41279 18.53449 29296 ft 449 kts 354°
2026-05-08 20:41 43.44404 18.53168 29643 ft 451 kts 354°
2026-05-08 20:41 43.47545 18.52893 30006 ft 454 kts 354°
2026-05-08 20:41 43.50706 18.52619 30322 ft 456 kts 354°
2026-05-08 20:42 43.53883 18.52341 30620 ft 458 kts 354°
2026-05-08 20:42 43.57074 18.52061 30933 ft 460 kts 354°
2026-05-08 20:42 43.60274 18.51780 31256 ft 463 kts 354°
2026-05-08 20:42 43.63495 18.51497 31591 ft 464 kts 354°
2026-05-08 20:43 43.66710 18.51215 32074 ft 462 kts 354°
2026-05-08 20:43 43.69912 18.50931 32532 ft 461 kts 354°
2026-05-08 20:43 43.73115 18.50642 32928 ft 461 kts 354°
2026-05-08 20:43 43.76315 18.50351 33337 ft 460 kts 354°
2026-05-08 20:44 43.79508 18.50063 33753 ft 460 kts 354°
2026-05-08 20:44 43.82694 18.49778 34148 ft 459 kts 354°
2026-05-08 20:44 43.85924 18.49492 34478 ft 459 kts 354°
2026-05-08 20:44 43.89070 18.49214 34794 ft 459 kts 354°
2026-05-08 20:45 43.92259 18.48931 35079 ft 460 kts 354°
2026-05-08 20:45 43.95453 18.48648 35397 ft 460 kts 354°
2026-05-08 20:45 43.98643 18.48364 35734 ft 459 kts 354°
2026-05-08 20:45 44.01827 18.48080 36079 ft 458 kts 353°
2026-05-08 20:46 44.05004 18.47793 36428 ft 457 kts 353°
2026-05-08 20:46 44.08174 18.47505 36762 ft 456 kts 353°
2026-05-08 20:46 44.11342 18.47215 37062 ft 456 kts 353°
2026-05-08 20:46 44.14503 18.46925 37382 ft 455 kts 353°
2026-05-08 20:47 44.17658 18.46636 37682 ft 454 kts 353°
2026-05-08 20:47 44.20804 18.46353 37961 ft 454 kts 353°
2026-05-08 20:47 44.23958 18.46070 38048 ft 453 kts 353°
2026-05-08 20:48 44.30247 18.45517 38067 ft 453 kts 353°
2026-05-08 20:48 44.36530 18.44961 38070 ft 452 kts 353°
2026-05-08 20:49 44.42805 18.44380 38071 ft 452 kts 353°
2026-05-08 20:49 44.49090 18.43803 38069 ft 452 kts 353°
2026-05-08 20:50 44.55374 18.43235 38066 ft 453 kts 353°
2026-05-08 20:50 44.61664 18.42657 38067 ft 453 kts 353°
2026-05-08 20:51 44.67962 18.42075 38085 ft 454 kts 353°
2026-05-08 20:51 44.74271 18.41504 38070 ft 454 kts 353°
2026-05-08 20:52 44.80582 18.40924 38062 ft 454 kts 353°
2026-05-08 20:52 44.86887 18.40330 38073 ft 455 kts 353°
2026-05-08 20:53 44.93167 18.39751 38072 ft 455 kts 353°
2026-05-08 20:53 44.99491 18.39166 38065 ft 456 kts 353°
2026-05-08 20:54 45.05816 18.38578 38060 ft 456 kts 353°
2026-05-08 20:54 45.12162 18.38266 38071 ft 458 kts 359°
2026-05-08 20:55 45.18538 18.38595 38064 ft 458 kts 359°
2026-05-08 20:55 45.24908 18.38897 38066 ft 459 kts 359°
2026-05-08 20:56 45.31295 18.39209 38062 ft 459 kts 359°
2026-05-08 20:56 45.37666 18.39516 37472 ft 457 kts 359°
2026-05-08 20:56 45.40849 18.39672 36836 ft 458 kts 359°
2026-05-08 20:57 45.44041 18.39828 36210 ft 460 kts 359°
2026-05-08 20:57 45.47247 18.39983 35565 ft 462 kts 359°
2026-05-08 20:57 45.50457 18.40138 35008 ft 461 kts 359°
2026-05-08 20:57 45.53657 18.40295 34544 ft 458 kts 359°
2026-05-08 20:58 45.56836 18.40456 34079 ft 456 kts 360°
2026-05-08 20:58 45.59993 18.40620 33570 ft 453 kts 360°
2026-05-08 20:58 45.63132 18.40783 33072 ft 450 kts 360°
2026-05-08 20:58 45.66248 18.40941 32585 ft 446 kts 360°
2026-05-08 20:59 45.69338 18.41096 32103 ft 443 kts 360°
2026-05-08 20:59 45.72442 18.41369 31613 ft 441 kts
2026-05-08 20:59 45.75396 18.42248 31153 ft 439 kts 16°
2026-05-08 20:59 45.78241 18.43788 30688 ft 436 kts 25°
2026-05-08 21:00 45.80974 18.45653 30245 ft 434 kts 25°
2026-05-08 21:00 45.83689 18.47510 29718 ft 430 kts 25°
2026-05-08 21:00 45.86381 18.49353 29217 ft 427 kts 25°
2026-05-08 21:00 45.89068 18.51195 28302 ft 434 kts 25°
2026-05-08 21:01 45.91831 18.53087 27110 ft 446 kts 25°
2026-05-08 21:01 45.94661 18.55021 26132 ft 454 kts 24°
2026-05-08 21:01 45.97511 18.56973 25454 ft 453 kts 24°
2026-05-08 21:01 46.00345 18.58916 24853 ft 449 kts 24°
2026-05-08 21:02 46.03153 18.60845 24281 ft 446 kts 24°
2026-05-08 21:02 46.05938 18.62765 23725 ft 442 kts 24°
2026-05-08 21:02 46.08700 18.64666 23085 ft 438 kts 24°
2026-05-08 21:02 46.11439 18.66549 22485 ft 433 kts 24°
2026-05-08 21:03 46.14146 18.68415 21917 ft 429 kts 24°
2026-05-08 21:03 46.16817 18.70257 21378 ft 424 kts 24°
2026-05-08 21:03 46.19467 18.72090 20858 ft 420 kts 25°
2026-05-08 21:03 46.22085 18.73909 20355 ft 415 kts 25°
2026-05-08 21:04 46.24672 18.75711 19899 ft 411 kts 25°
2026-05-08 21:04 46.27237 18.77495 19408 ft 408 kts 25°
2026-05-08 21:04 46.29788 18.79263 18906 ft 405 kts 25°
2026-05-08 21:04 46.32360 18.81048 17955 ft 414 kts 25°
2026-05-08 21:05 46.34967 18.82858 17416 ft 421 kts 25°
2026-05-08 21:05 46.37627 18.84710 16895 ft 426 kts 25°
2026-05-08 21:05 46.40298 18.86575 16380 ft 425 kts 26°
2026-05-08 21:05 46.42953 18.88430 15868 ft 422 kts 26°
2026-05-08 21:06 46.45586 18.90274 15386 ft 419 kts 25°
2026-05-08 21:06 46.48197 18.92104 14980 ft 416 kts 25°
2026-05-08 21:06 46.50796 18.93921 14566 ft 413 kts 25°
2026-05-08 21:06 46.53376 18.95727 14159 ft 411 kts 25°
2026-05-08 21:07 46.55942 18.97528 13750 ft 408 kts 25°
2026-05-08 21:07 46.58490 18.99321 13298 ft 405 kts 26°
2026-05-08 21:07 46.61011 19.01098 12854 ft 402 kts 26°
2026-05-08 21:07 46.63518 19.02864 12414 ft 399 kts 25°
2026-05-08 21:08 46.66010 19.04618 11974 ft 397 kts 25°
2026-05-08 21:08 46.68488 19.06365 11553 ft 394 kts 25°
2026-05-08 21:08 46.70946 19.08103 11133 ft 391 kts 25°
2026-05-08 21:08 46.73385 19.09826 10714 ft 388 kts 25°
2026-05-08 21:09 46.75804 19.11542 10305 ft 386 kts 25°
2026-05-08 21:09 46.78212 19.13247 9890 ft 383 kts 25°
2026-05-08 21:09 46.80598 19.14939 9450 ft 380 kts 26°
2026-05-08 21:09 46.82964 19.16620 9024 ft 376 kts 26°
2026-05-08 21:10 46.85305 19.18281 8571 ft 372 kts 26°
2026-05-08 21:10 46.87624 19.19927 8207 ft 369 kts 26°
2026-05-08 21:10 46.89925 19.21567 7855 ft 367 kts 26°
2026-05-08 21:10 46.92211 19.23202 7496 ft 364 kts 26°
2026-05-08 21:11 46.94477 19.24825 7157 ft 361 kts 26°
2026-05-08 21:11 46.96721 19.26432 6817 ft 359 kts 26°
2026-05-08 21:11 46.98978 19.28042 6467 ft 363 kts 26°
2026-05-08 21:11 47.01253 19.29665 6123 ft 364 kts 26°
2026-05-08 21:12 47.03528 19.31286 5768 ft 363 kts 26°
2026-05-08 21:12 47.05794 19.32908 5398 ft 362 kts 26°
2026-05-08 21:12 47.08054 19.34532 5064 ft 360 kts 26°
2026-05-08 21:12 47.10294 19.36147 4720 ft 358 kts 26°
2026-05-08 21:13 47.12533 19.37760 4494 ft 358 kts 26°
2026-05-08 21:13 47.14043 19.38847 4337 ft 357 kts 26°
2026-05-08 21:13 47.16187 19.40389 4098 ft 324 kts 26°
2026-05-08 21:13 47.18100 19.41770 3924 ft 288 kts 26°
2026-05-08 21:14 47.19849 19.43033 3782 ft 275 kts 26°
2026-05-08 21:14 47.21514 19.44234 3502 ft 259 kts 26°
2026-05-08 21:14 47.23099 19.45375 3360 ft 249 kts 26°
2026-05-08 21:14 47.24616 19.46468 3267 ft 236 kts 26°
2026-05-08 21:15 47.26051 19.47505 3204 ft 224 kts 26°
2026-05-08 21:15 47.27474 19.48354 3126 ft 215 kts 13°
2026-05-08 21:15 47.28932 19.48494 3030 ft 208 kts 353°
2026-05-08 21:15 47.30314 19.47929 2996 ft 206 kts 334°
2026-05-08 21:16 47.31491 19.46742 3000 ft 206 kts 315°
2026-05-08 21:16 47.32465 19.45195 3003 ft 206 kts 313°
2026-05-08 21:16 47.33434 19.43640 2921 ft 206 kts 313°
2026-05-08 21:16 47.34397 19.42095 2703 ft 202 kts 314°
2026-05-08 21:17 47.35342 19.40577 2459 ft 199 kts 314°
2026-05-08 21:17 47.36251 19.39115 2213 ft 188 kts 315°
2026-05-08 21:17 47.37094 19.37759 1960 ft 173 kts 315°
2026-05-08 21:17 47.37864 19.36520 1740 ft 153 kts 315°
2026-05-08 21:18 47.38564 19.35394 1535 ft 146 kts 315°
2026-05-08 21:18 47.39243 19.34303 1346 ft 143 kts 315°
2026-05-08 21:18 47.39919 19.33237 1127 ft 142 kts 315°
2026-05-08 21:18 47.40583 19.32148 1005 ft 142 kts 312°
2026-05-08 21:19 47.41241 19.31066 778 ft 141 kts 314°
2026-05-08 21:19 47.41907 19.30005 600 ft 141 kts 313°
2026-05-08 21:19 47.42570 19.28945 448 ft 136 kts 314°
2026-05-08 21:19 47.43117 19.28064 461 ft 93 kts 312°
2026-05-08 21:20 47.43445 19.27533 470 ft 54 kts 312°
2026-05-08 21:20 47.43658 19.27184 474 ft 29 kts 307°
2026-05-08 21:20 47.43744 19.26915 471 ft 30 kts 284°
2026-05-08 21:20 47.43779 19.26684 459 ft 18 kts 282°
2026-05-08 21:21 47.43799 19.26548 459 ft 11 kts 282°
2026-05-08 21:21 47.43775 19.26449 458 ft 12 kts 224°
2026-05-08 21:21 47.43708 19.26359 458 ft 14 kts 222°
2026-05-08 21:21 47.43677 19.26217 458 ft 16 kts 268°
2026-05-08 21:22 47.43654 19.26050 456 ft 18 kts 233°
2026-05-08 21:22 47.43559 19.25919 457 ft 20 kts 222°
2026-05-08 21:22 47.43462 19.25789 457 ft 18 kts 222°
2026-05-08 21:22 47.43384 19.25684 456 ft 8 kts 222°
2026-05-08 21:23 47.43370 19.25637 457 ft 4 kts 284°
2026-05-08 21:23 47.43392 19.25597 457 ft 1 kts 313°